User: anonymous   Login
Location: Passau
(48.5830°N, 13.4830°E)
Time: 05:49:56
(UTC+02:00)
Language:

Altair - Orbit

View from above orbital plane
View from above orbital plane
View from above satellite
View from above satellite

Ground track
Ground track

The orbit data is extracted from the following two-line orbital elements,

1 00050U 60009B   24140.96067292 -.00000055  00000-0  28103-3 0  9990
2 00050  47.2346 355.1827 0113225 275.1654  83.6222 12.20140306845120
Epoch (UTC): 19 May 2024 23:03:22
Eccentricity: 0.0113225
inclination: 47.2346°
perigee height: 1501 km
apogee height: 1682 km
right ascension of ascending node: 355.1827°
argument of perigee: 275.1654°
revolutions per day: 12.20140306
mean anomaly at epoch: 83.6222°
orbit number at epoch: 84512

The dashed part of the orbit path shows where the satellite is in the earth's shadow,  

DLR